timestamp,surface_pressure_avg,surface_temp_avg,battery_voltage,lat,long
2022-02-18 00:09:01+00:00,328.6896,1.4,12.57,47.84626,-54.09684
2022-02-18 00:19:01+00:00,333.1014,1.35,12.57,47.84626,-54.09684
2022-02-18 00:29:01+00:00,341.4196,1.38,12.57,47.84626,-54.09684
2022-02-18 00:39:01+00:00,343.9713,1.38,12.57,47.84626,-54.09684
2022-02-18 00:49:01+00:00,342.8596,1.36,12.57,47.84626,-54.09684
2022-02-18 00:59:01+00:00,340.0497,1.31,12.57,47.84626,-54.09684
2022-02-18 01:09:01+00:00,339.7697,1.34,12.57,47.84626,-54.09684
2022-02-18 01:19:01+00:00,336.543,1.34,12.57,47.84626,-54.09684
2022-02-18 01:29:01+00:00,333.1230000000001,1.3,12.57,47.84626,-54.09684
2022-02-18 01:39:01+00:00,328.9679,1.3,12.57,47.84626,-54.09684
2022-02-18 01:49:01+00:00,326.1997,1.3,12.57,47.84626,-54.09684
2022-02-18 01:59:01+00:00,321.313,1.3,12.57,47.84626,-54.09684
2022-02-18 02:09:01+00:00,317.268,1.3,12.57,47.84626,-54.09684
2022-02-18 02:19:00+00:00,313.2547,1.3,12.57,47.84626,-54.09684
2022-02-18 02:29:00+00:00,311.1263,1.3,12.57,47.84626,-54.09684
2022-02-18 02:39:00+00:00,305.2947,1.3,12.57,47.84626,-54.09684
2022-02-18 02:49:00+00:00,301.7513,1.34,12.57,47.84626,-54.09684
2022-02-18 02:59:00+00:00,295.0131,1.34,12.57,47.84626,-54.09684
2022-02-18 03:09:00+00:00,289.848,1.32,12.57,47.84626,-54.09684
2022-02-18 03:19:00+00:00,284.9797,1.32,12.57,47.84626,-54.09684
2022-02-18 03:29:00+00:00,276.6697,1.3,12.57,47.84626,-54.09684
2022-02-18 03:39:00+00:00,266.1015,1.3,12.57,47.84626,-54.09684
2022-02-18 03:49:00+00:00,255.6414,1.3,12.57,47.84626,-54.09684
2022-02-18 03:59:00+00:00,249.2014,1.3,12.57,47.84626,-54.09684
2022-02-18 04:09:00+00:00,244.1131,1.3,12.57,47.84626,-54.09684
2022-02-18 04:19:01+00:00,234.8015,1.3,12.57,47.84626,-54.09684
2022-02-18 04:29:01+00:00,225.1047,1.3,12.57,47.84626,-54.09684
2022-02-18 04:39:01+00:00,217.1497,1.3,12.57,47.84626,-54.09684
2022-02-18 04:49:01+00:00,211.8931,1.3,12.57,47.84626,-54.09684
2022-02-18 04:59:01+00:00,205.5348,1.3,12.57,47.84626,-54.09684
2022-02-18 05:09:01+00:00,194.6614,1.3,12.57,47.84626,-54.09684
2022-02-18 05:19:00+00:00,191.3181,1.3,12.57,47.84626,-54.09684
2022-02-18 05:29:00+00:00,188.1682,1.3,12.57,47.84626,-54.09684
2022-02-18 05:39:00+00:00,179.8831,1.3,12.57,47.84626,-54.09684
2022-02-18 05:49:00+00:00,177.3831,1.3,12.57,47.84626,-54.09684
2022-02-18 05:59:00+00:00,176.6148,1.3,12.57,47.84626,-54.09684
2022-02-18 06:09:00+00:00,174.2565,1.29,12.57,47.84626,-54.09684
2022-02-18 06:19:01+00:00,175.3148,1.3,12.57,47.84626,-54.09684
2022-02-18 06:29:01+00:00,179.5931,1.3,12.57,47.84626,-54.09684
2022-02-18 06:39:01+00:00,184.9898,1.29,12.57,47.84626,-54.09684
2022-02-18 06:49:01+00:00,188.5498,1.28,12.57,47.84626,-54.09684
2022-02-18 06:59:01+00:00,192.0031,1.27,12.57,47.84626,-54.09684
2022-02-18 07:09:01+00:00,194.8798,1.28,12.57,47.84626,-54.09684
2022-02-18 07:19:00+00:00,198.1965,1.26,12.57,47.84626,-54.09684
2022-02-18 07:29:00+00:00,203.6414,1.24,12.57,47.84626,-54.09684
2022-02-18 07:39:00+00:00,206.4464,1.23,12.57,47.84626,-54.09684
2022-02-18 07:49:00+00:00,209.0131,1.22,12.57,47.84626,-54.09684
2022-02-18 07:59:00+00:00,214.1348,1.23,12.57,47.84626,-54.09684
2022-02-18 08:09:00+00:00,222.5414,1.23,12.57,47.84626,-54.09684
2022-02-18 08:19:00+00:00,226.6381,1.2,12.57,47.84626,-54.09684
2022-02-18 08:29:00+00:00,229.0348,1.2,12.57,47.84626,-54.09684
2022-02-18 08:39:00+00:00,238.9648,1.2,12.57,47.84626,-54.09684
2022-02-18 08:49:00+00:00,248.8948,1.2,12.57,47.84626,-54.09684
2022-02-18 08:59:00+00:00,251.7897,1.2,12.57,47.84626,-54.09684
2022-02-18 09:09:00+00:00,258.7481,1.2,12.57,47.84626,-54.09684
2022-02-18 09:19:01+00:00,268.2397,1.2,12.57,47.84626,-54.09684
2022-02-18 09:29:01+00:00,271.0548,1.2,12.57,47.84626,-54.09684
2022-02-18 09:39:01+00:00,272.1964,1.2,12.57,47.84626,-54.09684
2022-02-18 09:49:01+00:00,279.5864,1.2,12.57,47.84626,-54.09684
2022-02-18 09:59:01+00:00,284.9531,1.2,12.57,47.84626,-54.09684
2022-02-18 10:09:01+00:00,288.2831,1.24,12.57,47.84626,-54.09684
2022-02-18 10:19:00+00:00,295.638,1.26,12.57,47.84626,-54.09684
2022-02-18 10:29:00+00:00,305.0347,1.28,12.57,47.84626,-54.09684
2022-02-18 10:39:00+00:00,308.8713,1.29,12.57,47.84626,-54.09684
2022-02-18 10:49:00+00:00,310.3646,1.29,12.57,47.84626,-54.09684
2022-02-18 10:59:00+00:00,318.8413,1.29,12.57,47.84626,-54.09684
2022-02-18 11:09:00+00:00,330.2646,1.29,12.57,47.84626,-54.09684
2022-02-18 11:19:00+00:00,333.5113,1.3,12.57,47.84626,-54.09684
2022-02-18 11:29:00+00:00,338.1362,1.3,12.57,47.84626,-54.09684
2022-02-18 11:39:00+00:00,346.1364,1.3,12.57,47.84626,-54.09684
2022-02-18 11:49:00+00:00,352.5313,1.3,12.57,47.84626,-54.09684
2022-02-18 11:59:00+00:00,356.4946,1.3,12.57,47.84626,-54.09684
2022-02-18 12:09:00+00:00,362.4262,1.3,12.57,47.84626,-54.09684
2022-02-18 12:19:00+00:00,368.1379,1.3,12.57,47.84626,-54.09684
2022-02-18 12:29:00+00:00,373.0396,1.3,12.57,47.84626,-54.09684
2022-02-18 12:39:00+00:00,380.3496,1.3,12.57,47.84626,-54.09684
2022-02-18 12:49:00+00:00,385.8729,1.3,12.57,47.84626,-54.09684
2022-02-18 12:59:00+00:00,386.9178,1.3,12.57,47.84626,-54.09684
2022-02-18 13:09:00+00:00,393.7112,1.3,12.57,47.84626,-54.09684
2022-02-18 13:19:00+00:00,397.9597,1.3,12.57,47.84626,-54.09684
2022-02-18 13:29:00+00:00,395.1929,1.3,12.57,47.84626,-54.09684
2022-02-18 13:39:00+00:00,393.2778,1.3,12.57,47.84626,-54.09684
2022-02-18 13:49:00+00:00,393.5764,1.3,12.57,47.84626,-54.09684
2022-02-18 13:59:00+00:00,392.6813,1.3,12.57,47.84626,-54.09684
2022-02-18 14:09:00+00:00,386.708,1.3,12.57,47.84626,-54.09684
2022-02-18 14:19:01+00:00,387.0579,1.3,12.57,47.84626,-54.09684
2022-02-18 14:29:01+00:00,389.4762,1.3,12.57,47.84626,-54.09684
2022-02-18 14:39:01+00:00,379.1179,1.33,12.57,47.84626,-54.09684
2022-02-18 14:49:01+00:00,370.9563,1.32,12.57,47.84626,-54.09684
2022-02-18 14:59:01+00:00,369.3879,1.3,12.57,47.84626,-54.09684
2022-02-18 15:09:01+00:00,361.9463,1.3,12.57,47.84626,-54.09684
2022-02-18 15:19:00+00:00,347.62300000000016,1.3,12.57,47.84626,-54.09684
2022-02-18 15:29:00+00:00,347.0529,1.3,12.57,47.84626,-54.09684
2022-02-18 15:39:00+00:00,343.4929,1.3,12.57,47.84626,-54.09684
2022-02-18 15:49:00+00:00,328.788,1.3,12.57,47.84626,-54.09684
2022-02-18 15:59:00+00:00,322.7963,1.3,12.57,47.84626,-54.09684
2022-02-18 16:09:00+00:00,324.5363,1.3,12.57,47.84626,-54.09684
2022-02-18 16:19:00+00:00,313.0297,1.3,12.57,47.84626,-54.09684
2022-02-18 16:29:00+00:00,297.3614,1.3,12.57,47.84626,-54.09684
2022-02-18 16:39:00+00:00,293.2531,1.33,12.57,47.84626,-54.09684
2022-02-18 16:49:00+00:00,288.9097,1.35,12.57,47.84626,-54.09684
2022-02-18 16:59:00+00:00,276.8765,1.3,12.57,47.84626,-54.09684
2022-02-18 17:09:00+00:00,265.7247,1.3,12.57,47.84626,-54.09684
2022-02-18 17:19:01+00:00,264.8748,1.34,12.57,47.84626,-54.09684
2022-02-18 17:29:01+00:00,258.8698,1.35,12.57,47.84626,-54.09684
2022-02-18 17:39:01+00:00,247.1131,1.36,12.57,47.84626,-54.09684
2022-02-18 17:49:01+00:00,241.2797,1.38,12.57,47.84626,-54.09684
2022-02-18 17:59:01+00:00,237.3647,1.4,12.57,47.84626,-54.09684
2022-02-18 18:09:01+00:00,229.5797,1.4,12.57,47.84626,-54.09684
2022-02-18 18:19:00+00:00,220.2814,1.4,12.57,47.84626,-54.09684
2022-02-18 18:29:00+00:00,215.9064,1.4,12.57,47.84626,-54.09684
2022-02-18 18:39:00+00:00,211.6364,1.4,12.57,47.84626,-54.09684
2022-02-18 18:49:00+00:00,208.4364,1.4,12.57,47.84626,-54.09684
2022-02-18 18:59:00+00:00,212.6915,1.4,12.57,47.84626,-54.09684
2022-02-18 19:09:00+00:00,216.5247,1.4,12.57,47.84626,-54.09684
2022-02-18 19:19:00+00:00,216.2114,1.4,12.57,47.84626,-54.09684
2022-02-18 19:29:00+00:00,224.4431,1.4,12.57,47.84626,-54.09684
2022-02-18 19:39:00+00:00,233.8047,1.4,12.57,47.84626,-54.09684
2022-02-18 19:49:00+00:00,234.3731,1.4,12.57,47.84626,-54.09684
2022-02-18 19:59:00+00:00,237.5764,1.4,12.57,47.84626,-54.09684
2022-02-18 20:09:00+00:00,244.2048,1.4,12.57,47.84626,-54.09684
2022-02-18 20:19:01+00:00,248.9114,1.4,12.57,47.84626,-54.09684
2022-02-18 20:29:01+00:00,251.0731,1.4,12.57,47.84626,-54.09684
2022-02-18 20:39:01+00:00,251.2798,1.4,12.57,47.84626,-54.09684
2022-02-18 20:49:01+00:00,253.933,1.4,12.57,47.84626,-54.09684
2022-02-18 20:59:01+00:00,260.6514,1.44,12.57,47.84626,-54.09684
2022-02-18 21:09:01+00:00,263.3748,1.47,12.57,47.84626,-54.09684
2022-02-18 21:19:01+00:00,268.7048,1.49,12.57,47.84626,-54.09684
2022-02-18 21:29:01+00:00,275.7981,1.5,12.57,47.84626,-54.09684
2022-02-18 21:39:01+00:00,280.828,1.5,12.57,47.84626,-54.09684
2022-02-18 21:49:01+00:00,282.4664,1.5,12.57,47.84626,-54.09684
2022-02-18 21:59:01+00:00,289.4997,1.5,12.57,47.84626,-54.09684
2022-02-18 22:09:01+00:00,298.4913,1.5,12.57,47.84626,-54.09684
2022-02-18 22:19:00+00:00,303.193,1.5,12.57,47.84626,-54.09684
2022-02-18 22:29:00+00:00,303.5564,1.5,12.57,47.84626,-54.09684
2022-02-18 22:39:00+00:00,304.8297,1.5,12.57,47.84626,-54.09684
2022-02-18 22:49:00+00:00,308.8297,1.5,12.57,47.84626,-54.09684
2022-02-18 22:59:00+00:00,315.2197,1.5,12.57,47.84626,-54.09684
2022-02-18 23:09:00+00:00,323.1546,1.51,12.57,47.84626,-54.09684
2022-02-18 23:19:01+00:00,340.3364,1.56,12.49,47.84626,-54.09684
2022-02-18 23:29:01+00:00,358.4896,1.6,12.49,47.84626,-54.09684
2022-02-18 23:39:01+00:00,368.6946,1.6,12.49,47.84626,-54.09684
2022-02-18 23:49:01+00:00,377.2896,1.6,12.49,47.84626,-54.09684
2022-02-18 23:59:01+00:00,388.8413,1.6,12.49,47.84626,-54.09684
